Weather History for Barking Sands, HI

Change the Weather History Date:

Saturday, November 10, 2012

  Actual Average Record
Temperature  
Mean Temperature 76 °F -  
Max Temperature 84 °F 86 °F 90 °F (1967)
Min Temperature 68 °F 65 °F 61 °F (1964)
Cooling Degree Days 12    
Growing Degree Days 26 (Base 50)    
Moisture  
Dew Point 56 °F    
Average Humidity 53    
Maximum Humidity 100    
Minimum Humidity 29    
Precipitation  
Precipitation 0.00 in - - ()
Sea Level Pressure  
Sea Level Pressure 30.05 in    
Wind  
Wind Speed 5 mph (NNE)    
Max Wind Speed 12 mph    
Max Gust Speed -    
Visibility 10 miles    
Events      
Averages and records for this station are not official NWS values.
T = Trace of Precipitation, MM = Missing Value Source: NWS Daily Summary

Daily Weather History Graph

Daily Weather History Graph

Search for Another Location

Airport:

Trip Planner

Search our weather history database for the weather conditions in past years. The results will help you decide how hot, cold, wet, or windy it might be!

Date:

Astronomy

Nov. 10, 2012 Rise Set
Actual Time 6:48 AM HST 5:57 PM HST
Civil Twilight 6:25 AM HST 6:20 PM HST
Nautical Twilight 5:58 AM HST 6:47 PM HST
Astronomical Twilight 5:31 AM HST 7:14 PM HST
Moon 3:28 AM HST (11/10) 3:33 PM HST (11/10)
Length of Visible Light 11h 55m
Length of Day
11h 09m
Waning Crescent, 13% of the Moon is Illuminated
Nov 10
Waning Crescent
Nov 13
New
Nov 20
First Quarter
Nov 28
Full
Dec 6
Last Quarter

Hourly Weather History & Observations

Time (HST) Temp. Heat Index Dew Point Humidity Pressure Visibility Wind Dir Wind Speed Gust Speed Precip Events Conditions
12:56 AM 71.1 °F - 54.0 °F 55% 30.08 in 10.0 mi East 5.8 mph - N/A   Clear
1:56 AM 71.1 °F - 71.1 °F 100% 30.06 in 10.0 mi ENE 3.5 mph - N/A   Clear
2:56 AM 71.1 °F - 55.0 °F 57% 30.06 in 10.0 mi East 4.6 mph - N/A   Clear
3:56 AM 72.0 °F - 50.0 °F 46% 30.06 in 10.0 mi Calm Calm - N/A   Mostly Cloudy
4:56 AM 70.0 °F - 36.0 °F 29% 30.06 in 10.0 mi Calm Calm - N/A   Clear
5:56 AM 69.1 °F - 50.0 °F 51% 30.06 in 10.0 mi Calm Calm - N/A   Clear
6:56 AM 69.1 °F - 42.1 °F 38% 30.07 in 10.0 mi East 3.5 mph - N/A   Clear
7:56 AM 73.9 °F - 43.0 °F 33% 30.08 in 10.0 mi ENE 3.5 mph - N/A   Clear
8:56 AM 79.0 °F - - N/A% 30.10 in 10.0 mi Calm Calm - N/A   Scattered Clouds
9:56 AM 81.0 °F - - N/A% 30.09 in 10.0 mi SW 6.9 mph - N/A   Clear
10:56 AM 82.9 °F - - N/A% 30.08 in 10.0 mi WNW 9.2 mph - N/A   Clear
11:56 AM 82.9 °F - - N/A% 30.05 in 10.0 mi West 11.5 mph - N/A   Partly Cloudy
12:56 PM 82.9 °F - - N/A% 30.02 in 10.0 mi WSW 6.9 mph - N/A   Clear
1:56 PM 84.9 °F 84.2 °F 57.9 °F 40% 30.00 in 10.0 mi WNW 9.2 mph - N/A   Partly Cloudy
2:56 PM 84.0 °F 83.5 °F 57.9 °F 41% 29.99 in 10.0 mi NW 11.5 mph - N/A   Clear
3:56 PM 84.9 °F 83.9 °F 57.0 °F 38% 29.99 in 10.0 mi NNW 8.1 mph - N/A   Clear
4:56 PM 82.9 °F 82.4 °F 57.0 °F 41% 29.99 in 10.0 mi Variable 3.5 mph - N/A   Partly Cloudy
5:56 PM 81.0 °F 81.3 °F 59.0 °F 47% 30.00 in 10.0 mi NNE 6.9 mph - N/A   Clear
6:56 PM 79.0 °F - 63.0 °F 58% 30.02 in 10.0 mi North 11.5 mph - N/A   Mostly Cloudy
7:56 PM 75.9 °F - 66.9 °F 74% 30.04 in 10.0 mi NE 3.5 mph - N/A   Clear
8:56 PM 75.0 °F - 73.9 °F 96% 30.06 in 10.0 mi NNE 3.5 mph - N/A   Clear
9:56 PM 71.1 °F - - N/A% 30.06 in 10.0 mi East 5.8 mph - N/A   Clear
10:56 PM 72.0 °F - - N/A% 30.06 in 10.0 mi Calm Calm - N/A   Clear
11:56 PM 68.0 °F - - N/A% 30.05 in 10.0 mi ENE 4.6 mph - N/A   Clear